Location: Newark
(43.3017°N, 122.3854°W)
Time: 17:02:11
(UTC+00:00)

N. Korean satellite - Pass Details

Date: 09 April 2020
Orbit: 455 x 505 km, 97.2° (Epoch: 30 May)

Event Time Altitude Azimuth Distance (km) Brightness Sun altitude
Rises 12:46:18 0° 36° (NE) 2,482 11.2 -9.6°
Reaches altitude 10° 12:49:51 10° 75° (ENE) 1,599 10.9 -9.0°
Maximum altitude 12:50:44 11° 90° (E) 1,548 10.4 -8.8°
Drops below altitude 10° 12:51:38 10° 106° (ESE) 1,596 10.1 -8.7°
Sets 12:55:09 0° 145° (SE) 2,465 10.4 -8.1°
